Weather History for Chicago DuPage, IL

Change the Weather History Date:

Tuesday, February 5, 2013

  Actual Average Record
Temperature  
Mean Temperature 18 °F 25 °F  
Max Temperature 30 °F 34 °F 57 °F (2008)
Min Temperature 5 °F 17 °F -11 °F (2007)
Degree Days  
Heating Degree Days 47 40  
Month to date heating degree days 254 200  
Since 1 July heating degree days 3861 3915  
Cooling Degree Days 0 0  
Month to date cooling degree days 0 0  
Year to date cooling degree days 0 0  
Moisture  
Dew Point 20 °F    
Average Humidity 84    
Maximum Humidity 93    
Minimum Humidity 69    
Precipitation  
Precipitation T in 0.04 in 0.11 in (2008)
Month to date precipitation 0.09 0.18  
Year to date precipitation 3.09 1.49  
Sea Level Pressure  
Sea Level Pressure 29.88 in    
Wind  
Wind Speed 8 mph (WSW)    
Max Wind Speed 17 mph    
Max Gust Speed 22 mph    
Visibility 5 miles    
Events Snow    
T = Trace of Precipitation, MM = Missing Value Source: NWS Daily Summary

Daily Weather History Graph

Daily Weather History Graph

Search for Another Location

Airport:

Trip Planner

Search our weather history database for the weather conditions in past years. The results will help you decide how hot, cold, wet, or windy it might be!

Date:

Astronomy

Feb. 05, 2013 Rise Set
Actual Time 7:00 AM CST 5:13 PM CST
Civil Twilight 6:31 AM CST 5:42 PM CST
Nautical Twilight 5:58 AM CST 6:16 PM CST
Astronomical Twilight 5:26 AM CST 6:48 PM CST
Moon 2:44 AM CST (2/5) 12:29 PM CST (2/5)
Length of Visible Light 11h 11m
Length of Day
10h 12m
Waning Crescent, 26% of the Moon is Illuminated
Feb 5
Waning Crescent
Feb 10
New
Feb 17
First Quarter
Feb 25
Full
Mar 4
Last Quarter

Hourly Weather History & Observations

Time (CST) Temp. Windchill Dew Point Humidity Pressure Visibility Wind Dir Wind Speed Gust Speed Precip Events Conditions
12:52 AM 10.9 °F 4.7 °F 7.0 °F 84% 29.96 in 10.0 mi North 3.5 mph - N/A   Clear
1:52 AM 10.9 °F - 6.1 °F 81% 29.96 in 10.0 mi Calm Calm - N/A   Clear
2:52 AM 8.1 °F - 5.0 °F 87% 29.92 in 10.0 mi Calm Calm - N/A   Clear
3:52 AM 5.0 °F - 1.0 °F 84% 29.93 in 10.0 mi Calm Calm - N/A   Clear
4:52 AM 8.1 °F - 3.9 °F 83% 29.93 in 9.0 mi Calm Calm - N/A   Mostly Cloudy
5:52 AM 14.0 °F 6.5 °F 10.0 °F 84% 29.92 in 9.0 mi SW 4.6 mph - N/A   Overcast
6:45 AM 15.8 °F 6.1 °F 10.4 °F 79% 29.88 in 2.5 mi SSW 6.9 mph - 0.00 in Snow Light Snow
6:52 AM 15.1 °F 4.2 °F 12.0 °F 88% 29.92 in 2.0 mi SSW 8.1 mph - 0.00 in Snow Light Snow
7:02 AM 15.8 °F 6.1 °F 12.2 °F 86% 29.87 in 2.5 mi South 6.9 mph - 0.00 in Snow Light Snow
7:09 AM 15.8 °F 7.2 °F 12.2 °F 86% 29.87 in 3.0 mi South 5.8 mph - 0.00 in Snow Light Snow
7:32 AM 15.8 °F 8.6 °F 12.2 °F 86% 29.86 in 2.5 mi South 4.6 mph - 0.00 in Snow Light Snow
7:39 AM 15.8 °F 10.2 °F 12.2 °F 86% 29.86 in 3.0 mi South 3.5 mph - 0.00 in Snow Light Snow
7:52 AM 17.1 °F 8.7 °F 12.9 °F 84% 29.89 in 3.0 mi SSE 5.8 mph - 0.00 in Snow Light Snow
8:52 AM 19.0 °F 8.2 °F 16.0 °F 88% 29.87 in 6.0 mi South 9.2 mph - 0.00 in   Scattered Clouds
9:52 AM 23.0 °F 11.1 °F 19.0 °F 85% 29.86 in 8.0 mi South 12.7 mph 19.6 mph N/A   Partly Cloudy
10:16 AM 24.8 °F 13.4 °F 19.4 °F 80% 29.82 in 7.0 mi SSW 12.7 mph - N/A   Mostly Cloudy
10:52 AM 25.0 °F 14.2 °F 21.0 °F 85% 29.84 in 7.0 mi SSW 11.5 mph - N/A   Overcast
11:52 AM 28.0 °F 17.5 °F 23.0 °F 81% 29.84 in 6.0 mi SW 12.7 mph - N/A   Haze
12:29 PM 28.4 °F 18.0 °F 23.0 °F 80% 29.79 in 5.0 mi WSW 12.7 mph - N/A   Haze
12:44 PM 28.4 °F 18.5 °F 24.8 °F 86% 29.79 in 1.8 mi SW 11.5 mph - 0.00 in Snow Light Snow
12:52 PM 28.0 °F 17.5 °F 24.1 °F 85% 29.82 in 1.0 mi WSW 12.7 mph - 0.00 in Snow Light Snow
1:11 PM 28.4 °F 17.5 °F 24.8 °F 86% 29.78 in 3.0 mi WSW 13.8 mph - 0.00 in Snow Light Snow
1:24 PM 28.4 °F 18.0 °F 24.8 °F 86% 29.79 in 2.0 mi WSW 12.7 mph - 0.00 in Snow Light Snow
1:35 PM 28.4 °F 18.5 °F 24.8 °F 86% 29.79 in 3.0 mi West 11.5 mph - 0.00 in   Overcast
1:40 PM 28.4 °F 16.6 °F 24.8 °F 86% 29.80 in 1.8 mi West 16.1 mph - 0.00 in Snow Light Snow
1:49 PM 28.4 °F 18.5 °F 24.8 °F 86% 29.80 in 1.0 mi West 11.5 mph - 0.00 in Snow Light Snow
1:52 PM 28.9 °F 18.6 °F 25.0 °F 85% 29.84 in 0.8 mi West 12.7 mph - 0.00 in Snow Light Snow
2:14 PM 28.4 °F 18.5 °F 26.6 °F 93% 29.80 in 1.0 mi West 11.5 mph - 0.00 in Snow Light Snow
2:24 PM 28.4 °F 18.0 °F 26.6 °F 93% 29.80 in 1.8 mi West 12.7 mph - 0.00 in Snow Light Snow
2:47 PM 28.4 °F 16.6 °F 26.6 °F 93% 29.82 in 2.0 mi West 16.1 mph - 0.00 in Snow Light Snow
2:52 PM 28.9 °F 17.7 °F 26.1 °F 89% 29.85 in 2.0 mi West 15.0 mph - 0.00 in Snow Light Snow
3:00 PM 30.2 °F 20.8 °F 26.6 °F 86% 29.81 in 1.8 mi West 11.5 mph - 0.00 in Snow Light Snow
3:08 PM 30.2 °F 19.3 °F 26.6 °F 86% 29.83 in 3.0 mi West 15.0 mph - 0.00 in Snow Light Snow
3:16 PM 30.2 °F 20.2 °F 26.6 °F 86% 29.83 in 1.8 mi West 12.7 mph - 0.00 in Snow Light Snow
3:24 PM 30.2 °F 21.9 °F 26.6 °F 86% 29.84 in 0.8 mi West 9.2 mph - 0.00 in Snow Light Snow
3:32 PM 30.2 °F 19.3 °F 26.6 °F 86% 29.84 in 1.0 mi West 15.0 mph - 0.00 in Snow Light Snow
3:52 PM 30.0 °F 21.7 °F 26.1 °F 85% 29.88 in 2.0 mi West 9.2 mph - 0.00 in   Overcast
4:05 PM 30.2 °F 20.2 °F 26.6 °F 86% 29.86 in 3.0 mi West 12.7 mph - N/A   Overcast
4:23 PM 28.4 °F 17.0 °F 24.8 °F 86% 29.86 in 3.0 mi WNW 15.0 mph - N/A   Overcast
4:52 PM 28.9 °F 18.2 °F 25.0 °F 85% 29.92 in 3.0 mi WNW 13.8 mph - 0.00 in   Overcast
5:52 PM 28.9 °F 19.2 °F 24.1 °F 82% 29.95 in 7.0 mi WNW 11.5 mph - N/A   Overcast
6:52 PM 28.9 °F 19.2 °F 21.9 °F 75% 29.99 in 8.0 mi NW 11.5 mph - N/A   Overcast
7:52 PM 28.9 °F 21.1 °F 23.0 °F 78% 30.01 in 8.0 mi NW 8.1 mph - N/A   Overcast
8:52 PM 28.9 °F 22.8 °F 23.0 °F 78% 30.03 in 8.0 mi WNW 5.8 mph - N/A   Overcast
9:52 PM 28.9 °F 22.8 °F 23.0 °F 78% 30.05 in 8.0 mi NW 5.8 mph - N/A   Overcast
10:52 PM 30.0 °F 21.1 °F 21.0 °F 69% 30.06 in 9.0 mi NNW 10.4 mph - N/A   Overcast
11:52 PM 28.9 °F 20.4 °F 19.9 °F 69% 30.09 in 10.0 mi NNW 9.2 mph - N/A   Overcast